Gold Country Challenge - Loft Flight Inventory

Station: Loft Fly - T Race

Distance: 0.3 Miles    

Release: 17-Jul-2017 06:15

Weather Release:    Arrival:

Wind at Release:     Wind at Arrival:

Temp at Release: °    Temp at Arrival: °

Lofts: 92

Birds: 423

Clocked: 423

Loft Flight and Inventory. Training begins mid August
Drops Pos Breeder Pigeon Name Color Sex Ent Arrival Speed To Win Eligible Champ
101 Sugaronni Loft - CA 7059-AU17-FOYS Lyndon BC H 3 07:51:42.90 90.989 00:36:19 Lost
101 Bieche-Stevenson - CA 7240-AU17-BIE BB H 1 07:51:42.90 90.989 00:36:19 Yes
103 Sugaronni Loft - CA 7068-AU17-FOYS BB H 4 07:51:43.40 90.981 00:36:20 Lost
104 Goshentown Lofts - TN 3417-AU17-VITA BB H 1 07:51:44.40 90.965 00:36:21 Yes
105 G & L Loft - OR 7040-AU17-JC BC H 1 07:51:49.50 90.886 00:36:26 Yes
106 G & L Loft - OR 2344-AU17-WPC BB H 2 07:51:50.70 90.867 00:36:27 Yes
107 D J's Loft Of Ca - CA 6007-AU17-FSC BB H 4 07:51:51.40 90.856 00:36:28 Yes
107 America\'s Dream Loft - IL 0078-AU17-ADL BC H 1 07:51:51.40 90.856 00:36:28 Yes
109 Sierra Ranch - CA 0773-AU17-SR BB H 1 07:52:23.90 90.351 00:37:00 Yes
110 P N W Challenge - ID 7032-AU17-PNWC "5030-12" BB H 2 07:52:41.70 90.076 00:37:18 Yes
111 Thunder Birds Breeding Loft - TX 17820-AU17-WIN Scud2 BCSP C 2 07:52:45.40 90.019 00:37:22 Yes
112 Dream Team - VT 0520-AU17-JCZL BC H 3 07:52:46.20 90.007 00:37:22 Lost
113 Dream Team - VT 0672-AU17-JCZL SLT H 4 07:53:34.10 89.278 00:38:10 Yes
114 Dream Team - VT 0542-AU17-JCZL BC H 5 07:53:56.00 88.949 00:38:32 Yes
115 D B Loft - CA 4139-AU17-JEDD '' HOME ALONE'' BB H 1 07:54:00.70 88.878 00:38:37 Yes
116 Haack Loft - CA 2731-AU17-JEDD LAV H 3 07:54:51.90 88.119 00:39:28 Lost
117 Kim Wong - VT 10880-AU17-ARPU BC H 1 07:55:16.00 87.766 00:39:52 Yes
118 A P C Loft - TX 17164-AU17-APC SLT H 2 07:55:33.50 87.511 00:40:10 Yes
119 Lucky Luster Loft - CA 0028-AU17-RBPC PIED H 1 07:56:01.10 87.113 00:40:37 Lost
120 Nanez Family Lofts - WI 4297-AU17-NFL PIED H 2 07:56:07.80 87.017 00:40:44 Lost
121 Euro Dead - CA 6635-AU17-FSC SLT H 1 07:56:12.00 86.957 00:40:48 Lost
122 Huan Qiu Zhang - NC 1823-IF17-JNC BC H 2 07:56:41.20 86.540 00:41:17 Lost
123 Dj Loft Of Utah - UT 35622-AU17-ARPU ADDISONS EMPIRE WHT H 1 07:56:52.10 86.386 00:41:28 Lost
124 H & H Flying Circus - CA 0706-AU17-ML BB H 3 07:57:06.50 86.183 00:41:43 Yes
125 Tom O`Brien - CA 70809-AU17-SOC BB H 4 07:57:53.40 85.528 00:42:30 Yes
126 Mike Belus - CA 6729-AU17-JEDD BB H 1 07:58:23.70 85.110 00:43:00 Yes
127 Joe Sanford - CA 4393-AU17-JEDD BB H 5 07:58:29.60 85.030 00:43:06 Lost
128 Bolgar Loft - CA 7507-AU17-FSC BCSP H 2 07:59:22.90 84.306 00:43:59 Lost
129 Eastern Pearl Loft - VA 0251-AU17-EPL 🈚️量 251 BC H 5 08:00:07.70 83.707 00:44:44 Yes
130 Cloux Loft - CO 8124-AU17-FH BC H 1 08:00:12.60 83.642 00:44:49 Yes
131 Blue - Face - CA 1110-AU17-FVC BC H 2 08:00:16.20 83.595 00:44:52 Yes
132 De La O-Siino - CA 4049-AU17-COOK BC H 1 08:00:32.10 83.385 00:45:08 Yes
133 Ron Brooks - AR 1722-AU17-REB BC H 2 08:00:32.20 83.383 00:45:08 Lost
134 Fleet Washington - DC 1775-AU17-FLET BC H 1 08:01:32.60 82.596 00:46:09 Yes
135 Louis Foy - CA 1049-AU17-WSJ DC H 1 08:01:56.50 82.288 00:46:33 Yes
136 A P C Loft - TX 17169-AU17-APC BB H 3 08:02:06.60 82.159 00:46:43 Yes
137 Kay Eastwood - CA 19021-AU17-AA BLK C 3 08:02:08.40 82.136 00:46:45 Yes
138 Chala Loft - WA 0292-AU17-PSF BB H 2 08:02:11.00 82.102 00:46:47 Yes
139 Fleet Washington - DC 1770-AU17-FLET BB H 2 08:02:16.30 82.035 00:46:52 Yes
140 Al Shulman - CA 0247-AU17-WSJ BBSP H 3 08:02:30.80 81.850 00:47:07 Lost
141 Genesis Syndicate Loft - AZ 0328-AU17-GEN BB H 3 08:02:47.70 81.636 00:47:24 Yes
142 Hayloft - CA 7296-AU17-GSF BB H 3 08:02:51.60 81.587 00:47:28 Yes
143 Kay Eastwood - CA 19023-AU17-AA BB H 4 08:02:57.00 81.519 00:47:33 Lost
144 Skylinerpl.Com - UT 0206-AU17-UVI "Just Like Candy" BB H 2 08:03:09.40 81.363 00:47:46 Lost
145 Dan Mello - CA 70077-AU17-MAN GRIZ H 1 08:03:21.80 81.208 00:47:58 Lost
146 Bob & Susie - CA 0890-AU17-AUB BB H 2 08:03:29.60 81.111 00:48:06 Lost
147 A P C Loft - TX 17193-AU17-APC BB H 4 08:03:49.00 80.870 00:48:25 Yes
148 De La O-Siino - CA 4190-AU17-COOK BB H 2 08:03:52.50 80.827 00:48:29 Yes
149 Cloux Loft - CO 8127-AU17-FH BB H 2 08:03:59.40 80.741 00:48:36 Lost
150 Skylinerpl.Com - UT 0214-AU17-UVI "NRPL" BB H 3 08:04:05.50 80.666 00:48:42 Yes
151 Richard Callahan - MO 1665-AU17-AA BB H 1 08:04:16.50 80.531 00:48:53 Yes
152 De La O-Siino - CA 4024-AU17-COOK BCWF H 3 08:04:18.60 80.505 00:48:55 Yes
153 Jerry Gatto - CA 1100-AU17-HANG DCSP H 1 08:05:08.90 79.892 00:49:45 Yes
154 Lopez/ Saenz - CA 0856-AU17-TCH BC H 3 08:05:39.70 79.522 00:50:16 Yes
155 P N W Challenge - ID 7028-AU17-PNWC "4025-232" BC H 3 08:05:59.40 79.286 00:50:36 Lost
156 B S Lofts - CA 0226-AU17-BSL Van Claus BCWF H 1 08:06:04.80 79.222 00:50:41 Lost
157 Ceyx Loft - CA 0830-AU17-CEYX BCSP H 1 08:06:09.70 79.164 00:50:46 Yes
158 B S Lofts - CA 0229-AU17-BSL McClaus BC H 2 08:06:28.20 78.945 00:51:04 Yes
159 D J's Loft Of Ca - CA 6001-AU17-FSC BB H 5 08:06:53.00 78.653 00:51:29 Yes
160 One D!rection Loft - CA 2229-AU17-JEDD Golden Wings BBWF H 1 08:06:54.40 78.637 00:51:31 Yes
161 V Lin - IA 0369-AU17-VLIN BC H 2 08:07:01.70 78.552 00:51:38 Yes
162 Haack Loft - CA 2758-AU17-JEDD BB H 4 08:07:03.70 78.528 00:51:40 Yes
163 Richard Callahan - MO 1666-AU17-AA BB H 2 08:07:05.10 78.512 00:51:41 Yes
164 Jack Wilburn - CA 0825-AU17-HANG BB H 1 08:07:11.20 78.441 00:51:47 Yes
165 Goshentown Lofts - TN 3423-AU17-VITA PIED H 2 08:07:13.60 78.413 00:51:50 Yes
166 Goshentown Lofts - TN 3434-AU17-VITA BCSH H 3 08:07:16.20 78.382 00:51:52 Yes
167 B S Lofts - CA 0212-AU17-BSL Koni BC H 3 08:07:16.70 78.377 00:51:53 Yes
168 Genesis Syndicate Loft - AZ 0365-AU17-GEN BB H 4 08:07:27.50 78.251 00:52:04 Yes
169 Haack Loft - CA 2768-AU17-JEDD BBSP H 5 08:07:30.70 78.214 00:52:07 Lost
170 Huan Qiu Zhang - NC 1808-IF17-JNC BB H 3 08:07:36.40 78.148 00:52:13 Lost
171 Loizzi - Sikora - CA 3767-AU17-FVC BB H 3 08:07:42.10 78.082 00:52:18 Yes
172 Jack's Loft - CA 4388-AU17-FOYS Final Challenge RC H 1 08:07:53.30 77.953 00:52:30 Yes
173 Marengo Creek Farms - AL 2688-AU17-MCF BBWF H 3 08:07:56.20 77.920 00:52:32 Yes
174 Lopez/ Saenz - CA 0841-AU17-TCH BB H 4 08:07:59.90 77.877 00:52:36 Yes
175 Drama Queen Loft - TX 0339-AU17-GCI BC H 1 08:08:01.80 77.855 00:52:38 Yes
176 Jactions Loft - CA 15965-AU17-AA BB H 4 08:08:06.70 77.799 00:52:43 Yes
177 Mike Belus - CA 6734-AU17-JEDD BB H 2 08:08:07.00 77.796 00:52:43 Yes
178 Goshentown Lofts - TN 3414-AU17-VITA BC H 4 08:08:09.80 77.764 00:52:46 Yes
179 Skychargers - CA 0186-AU17-SD DC H 5 08:08:12.30 77.735 00:52:48 Yes
180 Flyhome Loft - CA 26324-AU17-ARPU BB H 1 08:08:12.80 77.729 00:52:49 Yes
181 Tom O`Brien - CA 70804-AU17-SOC DC H 5 08:08:15.00 77.704 00:52:51 Yes
182 Dennis Bisnett - CA 0901-AU17-ML BB H 1 08:08:17.10 77.680 00:52:53 Yes
183 Racing Pigeon Mall - WA 0706-AU17-RPM BB H 2 08:08:17.60 77.674 00:52:54 Lost
184 D B Loft - CA 4138-AU17-JEDD '' FLATLANDER'' BGRZ H 2 08:08:19.60 77.652 00:52:56 Yes
185 Aimhigh Loft - CA 0081-AU17-FMT Aim-0081 DC H 1 08:08:20.70 77.639 00:52:57 Yes
186 Jack Wilburn - CA 0801-AU17-HANG BC H 2 08:08:25.70 77.582 00:53:02 Lost
187 Plymouth Peak Pro Challenge - UT 7123-AU17-GS BBWF H 1 08:08:29.10 77.543 00:53:05 Yes
188 Hayloft - CA 7330-AU17-GSF BC H 4 08:08:30.00 77.533 00:53:06 Yes
189 Nanez Family Lofts - WI 4296-AU17-NFL BBWF H 3 08:08:31.10 77.521 00:53:07 Yes
190 Ceyx Loft - CA 0851-AU17-CEYX BC H 2 08:08:32.10 77.509 00:53:08 Lost
191 Bolgar Loft - CA 7596-AU17-FSC BC H 3 08:08:33.50 77.493 00:53:10 Lost
192 California Breeders Syndicate - CA 1168-AU17-AA Brutus BC H 2 08:08:34.50 77.482 00:53:11 Yes
193 California Breeders Syndicate - CA 1170-AU17-AA Gold Digger BB H 3 08:08:47.60 77.333 00:53:24 Lost
194 Lito Maniego Loft - CA 13735-AU17-ARPU BB H 1 08:08:52.00 77.283 00:53:28 Lost
195 M2 Loft - UT 0184-AU17-UVI BBSP H 1 08:08:55.70 77.242 00:53:32 Yes
196 Lechuga Loft - TX 0143-AU17-AMA BB H 2 08:08:59.00 77.204 00:53:35 Lost
197 Perfection Loft & Torres Loft - KS 3725-AU17-AA BB H 7 08:09:01.50 77.176 00:53:38 Yes
198 Fog City Loft - CA 2326-AU17-FCL BB H 2 08:09:13.20 77.044 00:53:49 Lost
199 All In - CA 8499-AU17-BON BB H 1 08:09:15.50 77.018 00:53:52 Lost
200 Genesis Syndicate Loft - AZ 0356-AU17-GEN BB H 5 08:09:16.10 77.012 00:53:52 Yes

There are 280 bird records

Note: These Race Results are unofficial and subject to change until verified by the Race Committee and declared final.